Location: Le Domaine
(47.0333°N, 76.5361°W)
Time: 13:59:52
(UTC-05:00)

Courier 1B Rocket - Pass Details

Date: 19 November 2019
Orbit: 920 x 1202 km, 28.2° (Epoch: 07 December)

Event Time Altitude Azimuth Distance (km) Brightness Sun altitude
Rises 18:32:03 0° 246° (WSW) 3,975 9.5 -21.0°
Reaches altitude 10° 18:36:23 10° 223° (SW) 3,062 8.2 -21.7°
Maximum altitude 18:40:04 14° 194° (SSW) 2,782 7.6 -22.3°
Drops below altitude 10° 18:43:48 10° 165° (SSE) 3,114 7.5 -23.0°
Enters shadow 18:46:22 - 150° (SSE) 3,620 7.7 -23.4°
